Starlink 33739

operational
NORAD ID: 63572 Int'l Des: 2025-076 Owner: SPXS Country: US Constellation: starlink
LEOCIRCULAR

Über Starlink 33739

Beschreibung wird geladen...

Live-Position

3D-Globus wird geladen...

Nächste Überflüge

Höhenverlauf

Altitude vs Time

uPlot chart will show altitude changes over time

Zweizeiliger Elementsatz

1 63572U 25076D 25351.61086722 .00016221 00000-0 59737-3 0 9997
2 63572 43.0032 65.5723 0001215 264.5141 95.5573 15.27597712 39278
Epoch: 17. Dez. 2025 • Age: 7 hours

Aktueller Status

Höhe 483.4 km
Geschwindigkeit 7.63 km/s
Subsatellitenpunkt 25.98°N, 162.65°E
Startdatum 14. Apr. 2025
Alter 0.6 years
Typ internet

Technische Details

Klassifizierung Payload
Masse 575.00 kg
Trockenmasse 530.00 kg
Gesamtmasse 575.00 kg
Länge 0.30 m
Durchmesser 4.10 m
Spannweite 29.00 m
Form Box + pan
Hersteller SPXS
Bus-Typ Starlink V2MO
Phasenstatus In Orbit
Besitzer/Staat SPXS/US

Große Konstellationen

Loading constellations...